Theta_e
319 318 318 319 318 317 316 316 315 312 311 312 312 311 311 312 312 317 320 319 320 339 353 349 349 351 352 354 353 354 362 360 359 358 362 357 359 356 354 354 353 351 346 342 345
318 318 318 318 317 317 317 316 314 311 310 310 311 311 311 312 322 320 320 318 321 345 350 350 352 350 354 353 351 358 358 358 355 356 358 358 358 357 358 357 357 354 346 345 345
317 318 318 317 317 318 317 316 312 310 309 310 310 311 312 313 325 330 319 323 327 344 348 350 352 351 355 353 352 352 356 354 354 356 355 357 358 356 358 359 357 357 351 346 345
315 317 318 318 318 317 316 314 312 310 309 310 310 311 312 326 343 334 318 332 334 351 351 353 353 349 350 352 349 354 350 351 353 354 356 358 357 357 357 358 353 354 349 346 346
311 314 317 318 318 316 315 314 312 310 310 310 311 312 322 326 331 326 322 337 345 350 353 354 357 351 352 349 350 353 352 351 352 353 356 355 358 359 359 355 352 352 348 346 344
308 311 315 317 318 316 315 314 313 310 310 311 312 312 328 334 336 330 346 348 352 351 351 351 350 350 351 353 352 350 351 353 355 353 356 359 359 357 357 354 355 354 351 345 343
308 309 312 317 318 315 315 314 313 311 310 311 313 324 326 326 338 334 346 352 353 348 350 344 348 349 353 355 350 350 356 359 356 355 357 357 359 362 356 355 356 355 352 347 344
307 309 310 315 318 316 316 313 313 311 310 311 314 327 323 332 340 333 342 352 349 349 349 351 351 352 355 351 347 352 355 361 360 358 357 355 365 360 355 355 357 355 354 351 349
307 308 309 313 318 316 316 313 312 310 310 313 324 327 324 342 340 336 338 347 348 348 347 346 345 353 352 350 345 346 348 353 361 357 357 356 366 359 354 355 356 355 355 352 349
308 309 310 312 318 315 313 312 311 313 316 324 325 325 322 336 337 342 342 341 345 344 341 339 347 356 351 347 345 343 344 344 354 356 356 359 364 359 355 353 354 356 354 353 348
311 310 311 312 317 315 313 320 327 324 320 322 323 327 329 336 336 338 341 337 341 338 346 351 355 351 346 345 346 345 344 344 344 346 356 361 362 359 356 354 353 354 353 353 350
312 313 314 312 316 316 317 325 326 327 324 322 322 324 334 337 338 337 335 338 344 345 349 352 352 344 344 344 343 341 345 344 344 347 357 360 360 360 357 355 352 351 352 351 350
313 315 317 315 317 317 321 324 321 323 329 329 327 324 329 331 339 337 335 337 343 345 347 350 346 343 342 339 336 337 337 343 348 353 356 360 363 364 360 356 353 350 349 350 350
314 316 317 315 318 320 322 321 321 323 329 329 329 326 327 327 331 337 335 338 346 348 346 347 342 339 337 338 335 334 334 340 351 354 352 356 359 367 364 363 357 353 350 349 350
313 314 316 314 321 325 326 322 323 324 326 327 326 326 327 327 328 334 336 338 343 339 342 342 340 339 339 338 335 339 338 340 347 347 349 359 354 364 362 365 361 356 351 348 348
313 313 316 315 316 323 322 323 324 333 327 326 326 327 326 326 328 335 338 338 336 335 336 337 338 338 338 336 334 339 344 347 347 345 348 347 350 353 361 361 359 355 352 349 347
312 313 316 317 327 322 323 326 334 335 329 328 326 326 326 326 328 333 336 340 335 337 338 337 336 334 333 335 331 341 344 339 341 343 343 343 351 346 354 353 354 354 352 351 348
313 320 320 318 320 321 324 331 337 333 333 328 327 326 326 326 326 328 332 334 332 332 335 337 337 334 332 334 334 339 336 334 336 335 338 347 343 351 349 351 351 351 350 350 350
319 319 320 322 320 322 330 333 336 334 332 332 329 327 327 327 327 327 329 330 331 332 334 336 336 331 331 332 333 336 335 333 332 334 336 339 340 348 347 350 353 351 351 352 351
324 326 327 322 322 325 330 328 331 329 330 330 330 329 329 328 327 328 329 329 328 330 331 332 335 333 330 331 330 332 333 334 335 339 339 338 337 339 351 352 356 354 355 355 354
326 330 323 322 323 328 331 330 328 328 331 333 334 334 334 332 330 329 329 329 329 329 330 331 332 335 334 334 335 334 334 334 334 334 335 335 336 340 349 351 353 355 355 355 355
328 330 324 322 328 328 330 329 322 330 334 333 332 333 335 335 334 332 331 330 330 331 330 331 333 334 333 333 333 334 335 335 335 336 336 336 337 346 347 345 349 353 353 352 354
330 330 326 326 328 327 328 330 334 336 337 335 333 334 336 337 337 331 330 329 327 331 332 333 333 334 334 333 333 333 335 334 333 334 337 339 339 347 348 347 348 349 353 353 355
333 331 333 334 333 331 332 337 337 336 337 336 338 337 338 340 337 339 335 335 332 331 328 331 332 333 334 334 334 334 334 334 334 334 336 336 335 346 347 348 349 350 353 355 357
328 329 328 335 334 334 336 336 337 337 336 336 339 337 339 342 340 340 338 336 335 333 332 331 333 333 333 333 334 334 335 334 336 335 335 334 334 334 341 347 347 349 351 354 356
328 330 327 327 327 332 328 332 332 332 335 337 335 333 336 338 334 339 336 339 339 338 332 330 335 336 334 332 333 334 332 333 333 334 334 334 334 334 342 347 348 347 348 351 353
313 316 323 319 328 331 326 325 324 326 333 327 327 330 337 325 321 323 326 330 333 338 339 335 333 337 336 334 333 334 333 334 333 333 333 335 336 343 347 349 348 348 348 348 348
Wind_Speed
16 13 11 9 8 6 6 5 4 5 3 6 4 4 5 2 3 3 8 4 6 16 14 9 6 7 7 3 5 3 4 7 6 8 8 11 9 5 4 12 3 3 9 21 27
16 14 12 9 7 6 5 5 4 4 4 5 4 5 3 2 6 12 6 7 11 18 13 9 10 9 3 2 2 3 3 7 5 5 6 11 8 10 8 11 7 9 14 27 28
16 15 13 10 7 6 5 4 2 3 3 3 4 4 2 1 7 3 10 10 16 17 12 6 8 1 2 2 1 2 6 4 4 6 5 11 8 7 11 8 11 15 21 25 27
17 15 14 11 8 6 4 2 2 2 3 4 5 3 2 3 1 2 11 10 20 14 9 5 6 3 6 2 1 3 2 1 4 4 6 9 9 3 4 9 10 15 22 24 24
19 17 15 13 9 5 3 2 1 3 4 5 5 4 1 7 5 3 14 15 17 12 11 4 7 5 7 6 2 3 5 1 4 3 7 8 5 8 5 3 11 17 19 22 21
20 19 16 14 10 5 2 1 3 4 5 6 5 4 4 3 3 11 17 17 10 10 8 6 3 5 7 6 5 7 4 2 6 8 9 10 7 3 7 7 14 18 19 17 19
20 20 17 14 11 4 1 3 4 5 6 6 6 1 5 7 3 14 15 14 10 5 6 2 6 7 9 4 3 4 4 8 9 12 9 11 8 9 9 10 14 16 15 18 18
20 19 19 15 11 2 2 5 6 6 7 7 6 2 2 4 10 15 12 12 11 4 1 1 4 8 8 7 4 4 5 5 9 8 7 7 7 9 10 11 13 15 17 18 18
21 20 18 15 11 1 4 6 7 8 8 7 1 6 6 7 10 13 12 11 13 8 8 7 8 6 5 7 7 4 4 4 8 7 6 8 7 9 10 9 11 14 17 15 16
21 20 17 14 10 4 8 8 9 9 6 2 4 6 4 6 10 13 6 5 7 6 10 6 5 7 6 8 7 5 3 2 2 8 8 6 7 12 11 10 10 16 17 16 18
22 20 17 13 7 11 13 5 5 5 7 4 10 4 13 12 11 10 9 6 8 9 10 8 8 8 12 8 8 8 7 4 4 3 7 6 10 13 13 11 11 14 16 17 17
23 19 17 13 9 15 8 5 5 5 6 6 3 4 9 13 5 10 11 6 5 8 8 9 12 7 5 7 6 5 5 4 4 3 7 5 8 12 13 13 13 14 16 17 19
22 18 16 10 5 13 11 8 0 2 5 7 7 10 9 10 10 17 10 6 11 15 12 12 11 14 10 7 7 8 4 5 3 9 4 6 9 13 13 12 13 14 15 17 18
20 17 14 1 1 5 5 7 8 4 6 11 10 9 9 7 8 17 12 8 4 7 9 9 5 6 8 11 9 10 5 3 9 10 1 10 3 15 16 16 15 15 16 17 19
19 17 12 8 2 4 2 1 7 5 5 12 10 9 12 11 17 14 22 14 13 11 7 11 7 12 14 8 5 5 2 4 7 8 4 11 7 9 15 15 16 17 17 17 18
22 16 8 2 6 7 3 2 5 7 4 10 10 12 14 14 9 10 13 15 9 15 14 20 18 13 10 5 5 4 6 6 5 5 6 7 5 9 11 17 18 18 18 18 18
22 12 7 6 1 3 5 5 6 5 5 10 15 14 17 13 11 15 15 18 12 11 15 14 15 13 9 10 3 11 12 3 4 5 7 3 5 6 9 5 18 20 19 18 18
12 4 6 8 3 3 8 7 5 5 6 8 8 15 13 11 13 14 13 15 18 16 12 8 8 7 8 12 4 12 8 7 4 2 6 4 3 6 5 8 12 19 19 19 19
9 6 4 2 10 3 6 8 2 4 2 4 7 13 12 12 6 13 15 14 14 17 12 6 9 6 1 6 10 8 8 6 6 3 7 4 3 10 7 8 12 20 20 19 19
5 8 5 2 8 7 7 2 3 3 4 3 9 14 13 16 13 12 13 12 17 15 16 3 7 4 8 6 6 8 3 7 6 3 4 4 4 4 6 12 13 18 20 20 19
5 4 6 9 8 5 8 3 1 1 4 3 0 5 5 7 14 16 10 13 10 17 18 15 9 8 7 5 3 6 9 7 7 5 10 8 3 10 7 10 15 16 17 19 18
3 3 6 4 6 3 7 1 1 2 1 2 4 6 4 3 6 11 13 4 4 10 20 20 7 7 8 3 5 8 10 8 6 3 3 7 6 6 4 6 11 15 16 17 18
2 5 3 5 5 8 3 4 2 4 5 3 2 2 1 2 4 7 1 3 6 12 10 11 9 10 12 11 7 10 10 10 8 7 6 10 5 5 7 7 10 11 12 13 16
2 4 4 3 2 3 7 3 5 4 5 3 5 2 4 3 2 2 5 4 3 4 6 5 13 12 11 6 1 13 8 9 11 9 4 8 4 8 8 9 10 11 12 14 15
4 4 4 5 4 4 2 1 3 2 5 7 2 7 3 1 3 3 3 6 5 4 6 11 12 12 18 7 7 6 7 10 12 14 9 10 7 4 7 11 12 12 13 14 15
4 3 2 3 0 2 2 4 5 5 6 3 5 7 9 6 6 3 8 1 3 2 6 8 7 5 10 8 10 10 9 8 11 11 11 11 10 5 6 11 12 12 14 14 15
8 3 5 2 1 3 3 3 5 5 3 7 8 8 1 6 11 12 12 13 11 7 2 5 8 6 12 11 9 12 13 12 9 10 11 11 5 7 8 12 14 14 13 13 15
Wind_Direction
3 358 353 346 338 330 319 314 318 285 247 248 220 220 241 262 273 226 241 228 178 150 138 143 161 178 209 276 273 307 224 87 81 73 124 146 128 81 77 135 131 125 142 154 149
2 359 352 346 337 325 315 314 309 275 242 228 190 210 229 243 248 245 242 201 168 155 154 138 112 155 195 226 268 276 27 52 46 70 116 160 141 138 152 150 127 124 119 145 155
360 358 355 348 339 326 314 310 303 268 231 185 184 199 196 255 250 70 207 168 167 159 159 144 130 185 237 294 274 351 42 62 84 22 162 155 142 145 144 176 159 146 146 154 156
358 357 356 351 339 327 318 295 274 241 181 157 176 166 183 237 6 28 172 165 163 164 173 204 175 204 235 175 98 253 37 18 102 56 132 148 132 130 166 50 150 150 156 159 167
357 355 356 354 343 333 309 270 218 172 153 148 161 141 225 213 65 115 159 151 155 182 189 227 301 341 14 335 314 306 41 186 156 123 116 128 128 95 70 56 140 147 160 167 174
356 355 353 355 347 330 309 205 180 156 143 150 138 164 257 166 357 160 148 153 170 189 184 203 349 344 296 306 300 350 314 266 191 162 135 129 124 184 83 126 141 151 170 168 178
355 353 352 351 349 324 219 167 157 146 146 147 134 164 256 68 99 148 162 165 155 167 179 192 267 284 334 283 333 287 147 127 109 155 153 140 102 92 115 131 138 166 162 169 190
350 351 351 350 353 332 154 152 146 139 141 144 147 236 72 13 137 161 169 169 168 116 175 335 325 282 273 317 212 213 216 167 137 154 151 241 105 132 140 141 152 161 171 179 177
347 346 350 347 349 34 143 140 137 133 132 132 181 259 110 116 148 171 181 186 183 224 271 283 282 289 281 263 180 205 101 108 156 193 163 231 120 154 160 154 158 164 177 177 175
344 342 345 341 344 140 138 135 126 111 123 162 262 228 176 173 156 173 162 173 186 213 259 259 249 281 241 268 21 326 339 120 154 168 205 181 115 161 169 161 172 172 179 185 178
344 341 342 335 338 150 129 128 193 169 206 325 147 92 127 119 133 160 176 163 199 193 238 227 286 267 348 343 311 303 279 251 180 164 202 203 151 170 173 171 171 182 179 185 192
342 340 337 328 316 178 169 246 357 2 174 192 123 118 134 168 125 148 158 205 204 225 213 243 245 32 321 288 300 280 242 214 134 181 232 168 160 166 181 184 179 189 189 190 181
340 338 337 331 23 167 212 235 230 325 245 152 170 169 166 198 166 159 178 187 211 235 244 272 299 318 308 321 298 111 9 158 128 156 214 183 179 184 186 194 183 191 196 197 194
337 337 334 69 68 161 219 235 241 250 221 146 182 161 164 199 167 169 218 215 232 268 279 281 320 300 306 317 337 80 12 181 158 196 135 211 28 190 188 197 196 192 193 197 199
336 332 321 197 302 228 90 246 226 217 199 145 139 133 158 201 135 187 203 231 252 260 265 276 291 300 299 333 329 29 191 187 193 227 235 179 257 100 180 199 198 200 191 196 195
334 324 310 259 222 236 197 166 200 228 123 150 140 174 172 200 161 148 186 225 281 257 252 266 272 275 280 299 301 163 159 157 193 261 231 57 273 158 178 216 196 188 189 190 193
327 301 226 196 47 182 185 195 224 274 148 154 177 174 200 176 169 171 191 200 223 228 239 251 259 228 244 247 199 220 221 181 226 200 44 73 242 22 183 186 185 181 184 185 189
321 224 219 189 212 169 190 219 256 94 179 142 180 193 202 179 204 195 190 210 218 255 282 280 200 191 171 238 285 214 274 304 248 285 61 143 303 90 81 155 174 173 179 180 185
128 125 123 202 194 193 224 224 96 112 59 184 168 191 196 189 232 206 214 215 213 206 233 211 238 138 207 253 251 160 232 339 282 198 261 76 135 131 156 148 183 173 175 180 186
164 165 65 204 177 209 238 303 113 357 329 215 194 196 194 193 198 205 198 225 230 205 231 219 269 201 140 178 197 270 356 217 209 238 293 95 287 56 150 171 175 177 180 182 186
188 150 60 120 156 208 224 127 180 91 310 297 70 181 239 178 214 216 225 230 226 207 212 232 244 154 213 210 89 168 217 230 309 293 308 287 30 65 110 174 179 179 189 186 188
263 130 162 173 194 215 220 222 342 341 28 300 293 292 265 214 227 219 227 235 205 173 198 209 260 238 250 79 290 289 299 283 267 215 253 310 315 94 91 167 173 183 186 192 189
88 105 148 222 203 195 155 188 321 344 26 359 281 331 347 282 235 215 244 10 187 193 185 178 234 235 233 195 198 228 212 259 308 303 268 288 78 101 120 150 171 170 171 176 184
248 144 137 188 324 263 172 138 154 59 65 7 355 249 288 210 180 160 165 121 160 235 34 196 255 240 247 254 279 199 205 225 265 287 194 238 333 150 164 169 167 167 168 168 177
357 62 2 141 76 94 144 48 131 73 5 18 125 31 346 231 158 79 21 147 124 147 183 226 252 235 255 272 256 239 207 210 243 280 294 330 321 356 160 180 174 163 170 167 176
17 335 125 58 106 184 71 50 33 42 352 58 31 3 24 76 21 342 347 329 53 169 181 215 268 281 250 217 232 228 230 241 243 271 266 274 276 114 122 144 162 169 177 180 179
16 15 293 38 33 238 43 40 23 343 109 48 350 323 271 20 319 294 288 283 284 298 256 232 255 244 246 198 226 241 235 235 257 257 264 259 342 115 145 163 167 167 177 181 183